User: anonymous   Login
Location: Cow Canyon Saddle
(34.2291°N, 117.6698°W)
Time: 06:07:37
(UTC-07:00)
Language:

Lacrosse 5 - Orbit

View from above orbital plane
View from above orbital plane
View from above satellite
View from above satellite

Ground track
Ground track

The orbit data is extracted from the following two-line orbital elements,

1 28646U 05016A   16091.81987963 0.00000000  00000-0  00000-0 0    09
2 28646  57.0130 336.9170 0007000 162.3183 197.6816 14.52125432    01
Epoch (UTC): 31 March 2016 19:40:37
Eccentricity: 0.0007000
inclination: 57.0130°
perigee height: 714 km
apogee height: 723 km
right ascension of ascending node: 336.9170°
argument of perigee: 162.3183°
revolutions per day: 14.52125432
mean anomaly at epoch: 197.6816°
orbit number at epoch: 0

The dashed part of the orbit path shows where the satellite is in the earth's shadow,  

DLR